Location: La Brionne
(46.1728°N, 1.7849°E)
Time: 06:49:33
(UTC+00:00)

Cosmos 2322 Rocket - Pass Details

Date: 31 October 2021
Orbit: 832 x 852 km, 71.0° (Epoch: 06 December)

Event Time Altitude Azimuth Distance (km) Brightness Sun altitude
Rises 18:01:46 0° 235° (SW) 3,368 6.4 -14.6°
Reaches altitude 10° 18:04:27 10° 245° (WSW) 2,439 5.8 -15.1°
Maximum altitude 18:09:26 32° 308° (NW) 1,397 3.8 -16.0°
Drops below altitude 10° 18:14:28 10° 11° (NNE) 2,460 4.5 -16.8°
Sets 18:17:11 0° 22° (NNE) 3,401 5.1 -17.3°
